TimeEDT,TemperatureF,Dew PointF,Humidity,Sea Level PressureIn,VisibilityMPH,Wind Direction,Wind SpeedMPH,Gust SpeedMPH,PrecipitationIn,Events,Conditions,WindDirDegrees,DateUTC
12:02 AM,46.4,42.8,87,28.52,3.0,West,26.5,44.9,0.01,Rain,Rain,270,2012-10-30 04:02:00
12:24 AM,46.4,42.8,87,28.54,2.5,West,24.2,40.3,0.06,Rain,Rain,260,2012-10-30 04:24:00
12:51 AM,46.4,42.8,87,28.57,3.0,WSW,24.2,36.8,0.16,Rain,Rain,250,2012-10-30 04:51:00
12:54 AM,46.0,43.0,89,28.58,3.0,West,21.9,32.2,0.17,Rain,Rain,260,2012-10-30 04:54:00
1:20 AM,46.4,42.8,87,28.61,4.0,WSW,21.9,36.8,0.09,Rain,Rain,250,2012-10-30 05:20:00
1:54 AM,46.0,43.0,89,28.67,4.0,SW,15.0,25.3,0.19,Rain,Rain,230,2012-10-30 05:54:00
2:54 AM,44.1,42.1,93,28.75,5.0,SSW,17.3,29.9,0.12,Rain,Light Rain,210,2012-10-30 06:54:00
3:54 AM,43.0,41.0,93,28.84,5.0,South,13.8,25.3,0.10,Rain,Light Rain,190,2012-10-30 07:54:00
4:02 AM,42.8,41.0,93,28.85,5.0,SSW,11.5,26.5,0.01,Rain,Light Rain,200,2012-10-30 08:02:00
4:54 AM,43.0,39.9,89,28.92,5.0,South,12.7,24.2,0.13,Rain,Light Rain,190,2012-10-30 08:54:00
5:54 AM,43.0,41.0,93,28.98,4.0,South,9.2,16.1,0.11,Rain,Light Rain,180,2012-10-30 09:54:00
6:04 AM,42.8,41.0,93,28.99,5.0,South,6.9,-,0.02,Rain,Light Rain,170,2012-10-30 10:04:00
6:21 AM,42.8,39.2,87,29.00,5.0,South,9.2,18.4,0.04,Rain,Light Rain,170,2012-10-30 10:21:00
6:54 AM,42.1,39.9,92,29.04,6.0,South,9.2,21.9,0.08,Rain,Light Rain,170,2012-10-30 10:54:00
7:46 AM,42.8,39.2,87,29.08,10.0,South,9.2,16.1,0.04,Rain,Light Rain,170,2012-10-30 11:46:00
7:54 AM,42.1,39.0,89,29.09,9.0,South,6.9,18.4,0.04,Rain,Light Rain,170,2012-10-30 11:54:00
8:27 AM,42.8,39.2,87,29.12,9.0,South,8.1,-,0.00,Rain,Light Rain,180,2012-10-30 12:27:00
8:54 AM,42.1,39.9,92,29.15,7.0,SSE,6.9,-,0.01,Rain,Light Rain,160,2012-10-30 12:54:00
9:54 AM,41.0,39.0,93,29.18,9.0,SSW,6.9,-,0.04,Rain,Light Rain,210,2012-10-30 13:54:00
10:38 AM,42.8,39.2,87,29.21,8.0,SSW,6.9,-,0.01,Rain,Light Rain,200,2012-10-30 14:38:00
10:50 AM,42.8,39.2,87,29.22,9.0,South,3.5,-,0.01,Rain,Light Rain,190,2012-10-30 14:50:00
10:54 AM,42.1,39.9,92,29.23,9.0,South,6.9,-,0.01,Rain,Light Rain,180,2012-10-30 14:54:00
11:54 AM,42.1,39.0,89,29.26,9.0,South,8.1,-,0.00,Rain,Light Rain,190,2012-10-30 15:54:00
12:54 PM,41.0,39.0,93,29.28,10.0,South,6.9,-,0.02,Rain,Light Rain,170,2012-10-30 16:54:00
1:47 PM,41.0,37.4,87,29.30,10.0,South,9.2,-,0.02,Rain,Light Rain,190,2012-10-30 17:47:00
1:54 PM,41.0,37.9,89,29.30,10.0,South,6.9,-,0.02,Rain,Light Rain,190,2012-10-30 17:54:00
2:39 PM,41.0,37.4,87,29.32,10.0,South,5.8,-,0.01,Rain,Light Rain,170,2012-10-30 18:39:00
2:54 PM,41.0,37.9,89,29.32,10.0,South,8.1,-,0.01,Rain,Light Rain,170,2012-10-30 18:54:00
3:54 PM,42.1,39.0,89,29.35,10.0,South,5.8,-,0.01,Rain,Light Rain,170,2012-10-30 19:54:00
4:54 PM,42.1,39.0,89,29.37,10.0,Variable,5.8,-,0.00,Rain,Light Rain,0,2012-10-30 20:54:00
5:35 PM,42.8,39.2,87,29.38,10.0,South,3.5,-,0.00,Rain,Light Rain,190,2012-10-30 21:35:00
5:54 PM,42.1,39.9,92,29.39,10.0,South,3.5,-,0.00,Rain,Light Rain,190,2012-10-30 21:54:00
6:54 PM,42.1,39.9,92,29.42,10.0,Calm,Calm,-,0.01,Rain,Light Rain,0,2012-10-30 22:54:00
7:54 PM,42.1,39.9,92,29.44,10.0,South,3.5,-,0.01,Rain,Light Rain,180,2012-10-30 23:54:00
8:27 PM,42.8,39.2,87,29.44,10.0,Calm,Calm,-,0.01,Rain,Light Rain,0,2012-10-31 00:27:00
8:54 PM,42.1,39.9,92,29.45,10.0,Calm,Calm,-,0.02,Rain,Light Rain,0,2012-10-31 00:54:00
9:12 PM,42.8,39.2,87,29.46,10.0,Calm,Calm,-,0.00,,Overcast,0,2012-10-31 01:12:00
9:54 PM,42.1,39.9,92,29.47,10.0,South,4.6,-,0.00,,Overcast,190,2012-10-31 01:54:00
10:54 PM,42.1,41.0,96,29.47,10.0,South,3.5,-,N/A,,Overcast,190,2012-10-31 02:54:00
11:20 PM,42.8,39.2,87,29.47,10.0,SSW,3.5,-,N/A,,Overcast,200,2012-10-31 03:20:00
11:28 PM,42.8,39.2,87,29.47,10.0,SSW,3.5,-,N/A,,Overcast,210,2012-10-31 03:28:00
11:49 PM,42.8,39.2,87,29.47,10.0,SSW,3.5,-,N/A,,Mostly Cloudy,210,2012-10-31 03:49:00
11:54 PM,42.1,39.9,92,29.47,10.0,SW,3.5,-,N/A,,Mostly Cloudy,220,2012-10-31 03:54:00
11:57 PM,42.8,39.2,87,29.47,10.0,Calm,Calm,-,N/A,,Overcast,0,2012-10-31 03:57:00